CZ-4 DEB, 26436

Orbit data source: Space-Track

CZ-4 DEB, 26436 is space debris in SSO originally from a launch on Thu, 14 Oct 1999 UTC launched from the Taiyaun Space Center, China (TSC). Debris objects in space refer to the collection of defunct objects orbiting the Earth. Examples of debris include non-operational satellites, rocket bodies, and fragments generated from explosions, collisions, or faulty payload assembly.

Loading next visibility...
Identifier
26436, 1999-057KH
Orbit
SSO
Country
Flag of CNCN / PRC
Related business
Manufacturer
Unknown
Mission
Spacecraft
Bus & Motor
Unknown
Mass
Unknown
Launch date (UTC)
1999-10-14 (26 years ago)
Launch vehicle
Unknown
Launch site
Taiyaun Space Center, China (TSC)
Object type
Payload
Rocket body
Debris
Shape & HBR
Unknown shape, 0.1 m
Radar Cross Section
Small (<0.1 m²)

Expand to show TLE details & history
Last TLE update: 20 hours ago

TLE from 20 hours ago
0 CZ-4 DEB
1 26436U 99057KH  25301.18162119  .00001227  00000-0  13619-2 0  9995
2 26436  99.5319  37.2214 0701431  52.7764 313.5271 12.97920888572746
Epoch: 2025-10-28T04:21Z
TLE epoch observation values (Epoch: 2025-10-28T04:21:32.070Z)
Latitude
-0°
Longitude
-64.93502°
Altitude
924.708 km
Speed
7.556 km/s
True Right ascension
02h 28m 53s
True Declination
0° 00' 00"
Sunlit
Object was in full shadow at epoch
Visualization orbit readout
Latitude
Unknown
Longitude
Unknown
Altitude
Unknown
Speed
Unknown
Apparent Right ascension
Unknown
Apparent Declination
Unknown
Sunlit
N/A
Visualization observer readout
Local Sidereal Time
19:52:09
Azimuth
Unknown
Elevation
Unknown
Doppler factor
Unknown
Orbital elements
Apogee altitude
1,803.886 km
Perigee altitude
731.296 km
Semi-major axis
7,645.728 km
Eccentricity
0.07014
Inclination
99.5319°
RAAN
37.2214°
Arg. of periapsis
52.7764°
True anomaly
307.33796°
Mean anomaly
313.5271°
Eccentric anomaly
310.46972°
Mean motion
3.2465 °/min
Orbital period
110.89 mins
BSTAR
0.0013619
Loading maneuver chart data...
Computing Atmospheric mass density...

Documentation

Showing up to 5 results
|